This is the latest recevied weather packets stored in our database for station/object N5DGC. If no packets are shown the sender has not sent any weather packets the latest 10 day(s).
| Time | Temp. | Humidity | Pressure | Rain* | Wind** | Luminosity | Snow |
|---|---|---|---|---|---|---|---|
| 1787855108 | 32.78° C | 25% | 1244.4 hPa | 0 mm | - | 900 W/m² | - |
| 1787854805 | 32.78° C | 25% | 1244.6 hPa | 0 mm | - | 889 W/m² | - |
| 1787854502 | 32.22° C | 26% | 1244.4 hPa | 0 mm | - | 878 W/m² | - |
| 1787854197 | 32.78° C | 25% | 1244.8 hPa | 0 mm | - | 860 W/m² | - |
| 1787853892 | 33.33° C | 25% | 1245 hPa | 0 mm | - | 854 W/m² | - |
| 1787853590 | 32.78° C | 25% | 1244.8 hPa | 0 mm | - | 855 W/m² | - |
| 1787853285 | 32.78° C | 26% | 1244.9 hPa | 0 mm | - | 862 W/m² | - |
| 1787852984 | 32.78° C | 25% | 1245 hPa | 0 mm | - | 868 W/m² | - |
| 1787852680 | 32.78° C | 25% | 1245.2 hPa | 0 mm | - | 870 W/m² | - |
| 1787852379 | 32.78° C | 25% | 1245.3 hPa | 0 mm | - | 866 W/m² | - |
| 1787852078 | 33.33° C | 26% | 1245 hPa | 0 mm | - | 854 W/m² | - |
| 1787851779 | 32.78° C | 26% | 1245.3 hPa | 0 mm | - | 847 W/m² | - |
| 1787851473 | 32.78° C | 25% | 1245.2 hPa | 0 mm | - | 846 W/m² | - |
| 1787851168 | 32.78° C | 25% | 1245.2 hPa | 0 mm | - | 852 W/m² | - |
| 1787850864 | 32.78° C | 26% | 1245.5 hPa | 0 mm | - | 850 W/m² | - |
| 1787850560 | 32.22° C | 26% | 1245.6 hPa | 0 mm | - | 278 W/m² | - |
| 1787850254 | 32.22° C | 27% | 1245.6 hPa | 0 mm | - | 878 W/m² | - |
| 1787849954 | 31.67° C | 27% | 1245.2 hPa | 0 mm | - | 904 W/m² | - |
| 1787849654 | 31.67° C | 27% | 1245.6 hPa | 0 mm | - | 798 W/m² | - |
| 1787849349 | 31.67° C | 27% | 1245.5 hPa | 0 mm | - | 778 W/m² | - |
| 1787849048 | 31.11° C | 28% | 1245.5 hPa | 0 mm | - | 753 W/m² | - |
| 1787848743 | 30.56° C | 28% | 1245.5 hPa | 0 mm | - | 729 W/m² | - |
| 1787848438 | 30.56° C | 28% | 1245.6 hPa | 0 mm | - | 712 W/m² | - |
| 1787848138 | 30° C | 29% | 1245.5 hPa | 0 mm | - | 696 W/m² | - |
| 1787847837 | 29.44° C | 30% | 1245.7 hPa | 0 mm | - | 668 W/m² | - |
* Rain latest hour (hover to see other rain measurements)
** Current wind speed in m/s (hover to see current wind gust speed)